• în Republica Moldova
  • Lista ţărilor
  • Pe 7 zile
  • Temperatura apei
  • Hartă satelitară
  • Meteo pe hartă
  • Widget-uri
  • user-avatar
    Intrare

    Meteo pe oră la Ganja

    Astăzi, 25 Februarie, Sâmbătă

    Timp Temperatura Precipitaţii Vânt Presiune Umiditate
    00:00 +6°C° 0 mm 2 m/s 731 mmHg 66%
    01:00 +6°C° 0 mm 2 m/s 730 mmHg 66%
    02:00 +5°C° 0 mm 2 m/s 730 mmHg 65%
    03:00 +4°C° 0 mm 3 m/s 730 mmHg 68%
    04:00 +4°C° 0 mm 3 m/s 730 mmHg 68%
    05:00 +4°C° 0 mm 3 m/s 730 mmHg 68%
    06:00 +4°C° 0 mm 3 m/s 730 mmHg 69%
    07:00 +5°C° 0 mm 3 m/s 730 mmHg 68%
    08:00 +8°C° 0 mm 3 m/s 730 mmHg 67%
    09:00 +9°C° 0 mm 3 m/s 730 mmHg 67%
    10:00 +11°C° 0 mm 3 m/s 730 mmHg 63%
    11:00 +12°C° 0 mm 3 m/s 729 mmHg 60%
    12:00 +13°C° 0 mm 3 m/s 729 mmHg 56%
    13:00 +14°C° 0 mm 3 m/s 729 mmHg 55%
    14:00 +14°C° 0 mm 3 m/s 728 mmHg 55%
    15:00 +15°C° 0 mm 2 m/s 728 mmHg 54%
    16:00 +13°C° 0 mm 2 m/s 728 mmHg 57%
    17:00 +10°C° 0 mm 2 m/s 728 mmHg 61%
    18:00 +8°C° 0 mm 2 m/s 728 mmHg 64%
    19:00 +8°C° 0 mm 2 m/s 728 mmHg 63%
    20:00 +8°C° 0 mm 3 m/s 728 mmHg 62%
    21:00 +7°C° 0 mm 3 m/s 728 mmHg 62%
    22:00 +7°C° 0 mm 3 m/s 728 mmHg 61%
    23:00 +7°C° 0 mm 3 m/s 728 mmHg 60%

    Mâine, 26 Februarie, Duminică

    Timp Temperatura Precipitaţii Vânt Presiune Umiditate
    00:00 +5°C° 0 mm 4 m/s 727 mmHg 59%
    01:00 +5°C° 0 mm 4 m/s 727 mmHg 59%
    02:00 +5°C° 0 mm 4 m/s 727 mmHg 60%
    03:00 +5°C° 0 mm 4 m/s 726 mmHg 60%
    04:00 +5°C° 0 mm 4 m/s 726 mmHg 61%
    05:00 +5°C° 0 mm 4 m/s 726 mmHg 62%
    06:00 +4°C° 0 mm 4 m/s 726 mmHg 63%
    07:00 +6°C° 0 mm 4 m/s 726 mmHg 60%
    08:00 +8°C° 0 mm 4 m/s 726 mmHg 57%
    09:00 +10°C° 0 mm 4 m/s 726 mmHg 54%
    10:00 +11°C° 0 mm 4 m/s 726 mmHg 52%
    11:00 +13°C° 0 mm 4 m/s 726 mmHg 49%
    12:00 +14°C° 0 mm 5 m/s 725 mmHg 47%
    13:00 +14°C° 0 mm 5 m/s 725 mmHg 48%
    14:00 +14°C° 0 mm 5 m/s 725 mmHg 49%
    15:00 +14°C° 0 mm 5 m/s 725 mmHg 50%
    16:00 +12°C° 0 mm 4 m/s 726 mmHg 55%
    17:00 +10°C° 0 mm 3 m/s 726 mmHg 60%
    18:00 +8°C° 0 mm 3 m/s 727 mmHg 65%
    19:00 +8°C° 0 mm 2 m/s 728 mmHg 67%
    20:00 +7°C° 0 mm 2 m/s 729 mmHg 68%
    21:00 +7°C° 0 mm 1 m/s 729 mmHg 70%
    22:00 +6°C° 0 mm 2 m/s 730 mmHg 73%
    23:00 +5°C° 0 mm 2 m/s 730 mmHg 75%

    Poimâine, 27 Februarie, Luni

    Timp Temperatura Precipitaţii Vânt Presiune Umiditate
    00:00 +5°C° 0 mm 2 m/s 730 mmHg 78%
    01:00 +3°C° 0 mm 3 m/s 731 mmHg 80%
    02:00 +3°C° 0 mm 3 m/s 731 mmHg 82%
    03:00 +1°C° 0 mm 4 m/s 731 mmHg 84%
    04:00 +2°C° 0 mm 3 m/s 731 mmHg 84%
    05:00 +2°C° 0 mm 3 m/s 731 mmHg 84%
    06:00 +2°C° 0 mm 3 m/s 731 mmHg 84%
    07:00 +3°C° 0 mm 2 m/s 731 mmHg 81%
    08:00 +4°C° 0 mm 2 m/s 732 mmHg 77%
    09:00 +5°C° 0 mm 2 m/s 732 mmHg 74%
    10:00 +6°C° 0 mm 2 m/s 731 mmHg 71%
    11:00 +7°C° 0 mm 2 m/s 731 mmHg 68%
    12:00 +8°C° 0 mm 2 m/s 730 mmHg 65%
    13:00 +8°C° 0 mm 2 m/s 730 mmHg 64%
    14:00 +8°C° 0 mm 2 m/s 729 mmHg 64%
    15:00 +8°C° 0 mm 2 m/s 728 mmHg 64%
    16:00 +8°C° 0 mm 1 m/s 728 mmHg 68%
    17:00 +7°C° 0 mm 1 m/s 728 mmHg 73%
    18:00 +6°C° 0 mm 1 m/s 728 mmHg 78%
    19:00 +4°C° 0 mm 0 m/s 729 mmHg 79%
    20:00 +4°C° 0 mm 0 m/s 729 mmHg 81%
    21:00 +4°C° 0 mm 0 m/s 729 mmHg 82%
    22:00 +3°C° 0 mm 0 m/s 729 mmHg 83%
    23:00 +3°C° 0 mm 0 m/s 729 mmHg 84%

    28 Februarie, Marţi

    Timp Temperatura Precipitaţii Vânt Presiune Umiditate
    00:00 +3°C° 0 mm 0 m/s 729 mmHg 85%
    01:00 +3°C° 0 mm 0 m/s 729 mmHg 85%
    02:00 +3°C° 0 mm 0 m/s 728 mmHg 85%
    03:00 +3°C° 0 mm 1 m/s 728 mmHg 85%
    04:00 +3°C° 0 mm 1 m/s 728 mmHg 84%
    05:00 +3°C° 0 mm 1 m/s 728 mmHg 83%
    06:00 +3°C° 0 mm 1 m/s 729 mmHg 82%
    07:00 +5°C° 0 mm 1 m/s 729 mmHg 75%
    08:00 +7°C° 0 mm 1 m/s 729 mmHg 68%
    09:00 +9°C° 0 mm 1 m/s 730 mmHg 61%
    10:00 +10°C° 0 mm 1 m/s 729 mmHg 58%
    11:00 +12°C° 0 mm 1 m/s 729 mmHg 54%
    12:00 +13°C° 0 mm 1 m/s 729 mmHg 50%
    13:00 +13°C° 0 mm 1 m/s 729 mmHg 50%
    14:00 +14°C° 0 mm 1 m/s 728 mmHg 50%
    15:00 +14°C° 0 mm 1 m/s 728 mmHg 50%
    16:00 +12°C° 0 mm 1 m/s 728 mmHg 55%
    17:00 +11°C° 0 mm 1 m/s 729 mmHg 61%
    18:00 +8°C° 0 mm 2 m/s 729 mmHg 67%
    19:00 +7°C° 0 mm 2 m/s 729 mmHg 70%
    20:00 +7°C° 0 mm 2 m/s 730 mmHg 72%
    21:00 +7°C° 0 mm 2 m/s 730 mmHg 74%
    22:00 +6°C° 0 mm 2 m/s 730 mmHg 76%
    23:00 +7°C° 0 mm 1 m/s 730 mmHg 77%

    1 Martie, Miercuri

    Timp Temperatura Precipitaţii Vânt Presiune Umiditate
    00:00 +6°C° 0 mm 1 m/s 730 mmHg 79%
    01:00 +6°C° 0 mm 1 m/s 730 mmHg 81%
    02:00 +5°C° 0 mm 1 m/s 730 mmHg 83%
    03:00 +4°C° 0 mm 0 m/s 730 mmHg 84%
    04:00 +4°C° 0 mm 0 m/s 730 mmHg 85%
    05:00 +4°C° 0 mm 0 m/s 730 mmHg 85%
    06:00 +3°C° 0 mm 0 m/s 730 mmHg 86%
    07:00 +5°C° 0 mm 0 m/s 730 mmHg 79%
    08:00 +7°C° 0 mm 0 m/s 731 mmHg 71%
    09:00 +9°C° 0 mm 0 m/s 731 mmHg 64%
    10:00 +11°C° 0 mm 1 m/s 730 mmHg 61%
    11:00 +12°C° 0 mm 1 m/s 730 mmHg 58%
    12:00 +14°C° 0 mm 1 m/s 729 mmHg 55%
    13:00 +14°C° 0 mm 1 m/s 729 mmHg 55%
    14:00 +14°C° 0 mm 1 m/s 728 mmHg 55%
    15:00 +15°C° 0 mm 1 m/s 728 mmHg 56%
    16:00 +13°C° 0 mm 1 m/s 728 mmHg 62%
    17:00 +11°C° 0 mm 1 m/s 728 mmHg 69%
    18:00 +9°C° 0 mm 1 m/s 728 mmHg 75%
    19:00 +9°C° 0 mm 1 m/s 728 mmHg 77%
    20:00 +9°C° 0 mm 1 m/s 728 mmHg 79%
    21:00 +8°C° 0 mm 1 m/s 728 mmHg 81%
    22:00 +8°C° 0 mm 1 m/s 728 mmHg 82%
    23:00 +7°C° 0 mm 1 m/s 728 mmHg 83%

    2 Martie, Joi

    Timp Temperatura Precipitaţii Vânt Presiune Umiditate
    00:00 +7°C° 0 mm 1 m/s 727 mmHg 84%
    01:00 +5°C° 0 mm 0 m/s 727 mmHg 85%
    02:00 +5°C° 0 mm 0 m/s 726 mmHg 87%
    03:00 +5°C° 0 mm 0 m/s 726 mmHg 88%
    04:00 +4°C° 0 mm 0 m/s 726 mmHg 88%
    05:00 +4°C° 0 mm 0 m/s 726 mmHg 88%
    06:00 +4°C° 0 mm 0 m/s 726 mmHg 88%
    07:00 +6°C° 0 mm 0 m/s 725 mmHg 80%
    08:00 +8°C° 0 mm 0 m/s 725 mmHg 73%
    09:00 +10°C° 0 mm 0 m/s 725 mmHg 66%
    10:00 +12°C° 0 mm 1 m/s 724 mmHg 62%
    11:00 +13°C° 0 mm 1 m/s 723 mmHg 58%
    12:00 +14°C° 0 mm 2 m/s 723 mmHg 54%
    13:00 +14°C° 0 mm 2 m/s 722 mmHg 54%
    14:00 +14°C° 0 mm 2 m/s 722 mmHg 54%
    15:00 +15°C° 0 mm 2 m/s 721 mmHg 54%
    16:00 +13°C° 0 mm 2 m/s 721 mmHg 60%
    17:00 +12°C° 0 mm 2 m/s 721 mmHg 66%
    18:00 +9°C° 0 mm 2 m/s 721 mmHg 71%
    19:00 +10°C° 0 mm 1 m/s 721 mmHg 72%
    20:00 +10°C° 0 mm 1 m/s 721 mmHg 74%
    21:00 +9°C° 0 mm 1 m/s 722 mmHg 75%
    22:00 +9°C° 0,2 mm 1 m/s 721 mmHg 76%
    23:00 +8°C° 0,2 mm 0 m/s 721 mmHg 77%
    Arată mai mult